KORONAS-FOTON

Last updated on Mon Sep 15 2025 00:02:15 GMT+0000 (Coordinated Universal Time)

1 33504U 09003A 25256.93831114 .00007479 00000+0 19715-3 0 9999 2 33504 82.4295 98.9338 0013166 73.2985 286.9704 15.38226297918524
UTC large
Height (km)
Speed (km/s)
/
Latitude / Longitude
Inclination (degrees)
Orbital Period (minutes)
Azimuth
Elevation
Range (km)
Doppler Factor

Next 0 passes for location: London (51.5072 / 0.1276)

Sorry there are no passes over London.